Snowfall_Accumulation
0.0 0.0 0.0 0.0 0.0 0.0 0.0 0.0 0.0 0.0 0.0 0.0 0.0 0.0 0.0 0.0 0.0 0.0 0.0 0.0 0.0 0.0 0.0 0.0 0.0 0.0 0.0 0.0 0.0 0.0 0.0 0.0 0.0 0.0 0.0 0.0 0.0 0.0 0.0 0.0 0.0 0.0 0.0
0.0 0.0 0.0 0.0 0.0 0.0 0.0 0.0 0.0 0.0 0.0 0.0 0.0 0.0 0.0 0.0 0.0 0.0 0.0 0.0 0.0 0.0 0.0 0.0 0.0 0.0 0.0 0.0 0.0 0.0 0.0 0.0 0.0 0.0 0.0 0.0 0.0 0.0 0.0 0.0 0.0 0.0 0.0
0.0 0.0 0.0 0.0 0.0 0.0 0.0 0.0 0.0 0.0 0.0 0.0 0.0 0.0 0.0 0.0 0.0 0.0 0.0 0.0 0.0 0.0 0.0 0.0 0.0 0.0 0.0 0.0 0.0 0.0 0.0 0.0 0.0 0.0 0.0 0.0 0.0 0.0 0.0 0.0 0.0 0.0 0.0
0.0 0.0 0.0 0.0 0.0 0.0 0.0 0.0 0.0 0.0 0.0 0.0 0.0 0.0 0.0 0.0 0.0 0.0 0.0 0.0 0.0 0.0 0.0 0.0 0.0 0.0 0.0 0.0 0.0 0.0 0.0 0.0 0.0 0.0 0.0 0.0 0.0 0.0 0.0 0.0 0.0 0.0 0.0
0.0 0.0 0.0 0.0 0.0 0.0 0.0 0.0 0.0 0.0 0.0 0.0 0.0 0.0 0.0 0.0 0.0 0.0 0.0 0.0 0.0 0.0 0.0 0.0 0.0 nan nan nan 0.0 0.0 0.0 0.0 0.0 0.0 0.0 0.0 0.0 0.0 0.0 0.0 0.0 0.0 0.0
0.0 0.0 0.0 0.0 0.0 0.0 0.0 0.0 0.0 0.0 0.0 0.0 0.0 0.0 0.0 0.0 nan nan 0.0 0.0 0.0 0.0 0.0 0.0 0.0 0.0 0.0 nan nan nan nan 0.0 0.0 0.0 0.0 0.0 0.0 0.0 0.0 0.0 0.0 0.0 0.1
0.0 0.0 0.0 0.0 0.0 0.0 0.0 0.0 0.0 0.0 0.0 0.0 0.0 0.0 0.0 0.0 nan nan nan 0.0 0.0 0.0 0.0 0.0 0.0 0.0 nan 0.0 nan nan nan nan nan 0.0 0.0 0.0 0.0 0.0 0.0 0.0 0.0 0.0 0.0
0.0 0.0 0.0 0.1 0.0 0.0 0.0 0.0 0.0 0.0 0.0 0.0 0.0 0.0 0.0 0.0 nan nan nan 0.0 0.0 0.0 0.0 0.0 0.0 0.0 0.0 0.0 0.0 0.0 0.0 0.0 0.0 0.0 0.0 0.0 0.0 0.0 0.0 0.0 0.0 0.0 0.0
0.0 0.0 0.0 0.0 0.1 0.1 0.0 0.0 0.0 0.0 0.0 0.0 0.0 0.0 0.0 0.0 nan nan 0.0 0.0 0.0 0.0 0.0 0.0 0.0 0.0 nan nan 0.0 0.0 0.0 0.0 nan nan nan nan nan nan nan 0.0 0.1 0.2 0.2
0.0 0.0 0.0 0.0 0.0 0.1 0.1 0.1 0.0 0.0 0.0 0.0 0.0 0.0 nan 0.0 nan nan nan 0.0 0.0 0.0 0.0 0.0 nan 0.0 nan nan 0.0 0.0 0.0 0.0 0.0 0.0 0.0 0.0 nan nan nan 0.0 0.0 0.4 0.5
0.0 0.0 0.0 0.0 0.0 0.0 0.0 0.0 0.0 0.0 0.0 0.0 0.0 0.0 0.0 0.0 0.0 nan nan 0.0 0.0 0.0 0.0 0.0 0.0 nan nan nan nan 0.0 0.0 0.0 0.0 0.0 0.0 0.0 0.0 0.0 0.0 0.0 0.0 0.2 0.8
0.0 0.0 0.0 0.0 0.0 0.0 0.0 0.0 0.0 0.0 0.0 0.0 0.0 0.0 0.0 0.0 nan nan nan nan nan 0.0 0.0 0.0 0.0 nan nan nan nan nan nan nan 0.0 0.0 0.1 0.2 0.2 0.3 0.2 0.2 0.0 0.1 0.1
0.0 0.0 0.0 0.0 0.0 0.0 0.0 0.0 0.0 0.0 0.0 0.0 0.0 0.0 0.0 0.0 0.0 nan nan nan nan 0.0 0.0 0.0 nan nan nan nan nan nan nan 0.0 0.0 0.2 0.3 0.3 0.3 0.3 0.1 0.2 0.0 0.1 0.1
0.0 0.0 0.0 0.0 0.0 0.0 0.0 0.0 0.0 0.0 0.0 0.0 0.0 0.0 0.0 0.0 0.0 0.0 0.0 0.0 nan 0.0 nan 0.0 nan 0.0 nan nan 0.0 0.0 0.0 0.0 0.1 0.2 0.3 0.2 0.3 0.6 0.6 0.6 1.2 1.3 2.0
0.0 0.0 0.0 0.0 0.0 0.0 0.0 0.0 0.0 0.0 0.0 0.0 0.0 0.0 0.0 0.0 0.0 0.0 0.0 0.0 0.0 0.0 nan 0.0 0.0 0.0 0.0 0.0 0.0 0.0 0.0 0.0 0.2 0.2 0.4 0.4 0.5 0.7 1.0 1.0 1.8 2.3 3.6
0.0 0.0 0.0 0.0 0.0 0.0 0.0 0.0 nan nan nan nan nan 0.0 0.0 nan nan nan nan nan nan nan 0.0 0.0 0.0 0.1 0.1 0.0 0.0 0.0 0.0 0.3 0.3 0.4 0.5 0.6 1.0 1.3 1.7 2.4 2.7 2.8 3.5
0.2 0.1 0.0 0.0 0.1 0.0 0.0 0.1 0.0 0.0 nan nan nan nan nan nan nan nan nan nan nan nan 0.0 0.2 0.2 0.2 0.3 0.3 0.3 0.4 0.7 0.4 0.1 1.1 1.1 1.2 1.4 1.7 1.6 2.3 2.4 2.3 2.9
1.0 nan 0.4 0.3 0.1 0.1 0.1 0.0 0.0 0.1 0.0 0.0 nan nan nan nan nan nan nan nan 0.0 nan 0.2 0.3 0.4 0.4 0.4 0.5 0.6 0.8 0.8 0.8 1.1 1.2 1.5 1.8 2.4 3.1 3.6 3.2 2.4 3.6 2.9
2.6 2.3 2.0 1.5 0.7 0.3 0.3 0.2 0.1 0.1 0.0 0.0 0.0 0.0 nan nan nan nan nan 0.0 0.2 0.3 0.3 0.3 0.3 0.4 0.5 0.5 0.6 0.7 0.4 1.3 1.9 2.7 2.1 2.7 2.7 3.5 3.4 2.3 2.0 1.3 nan
2.7 nan 2.9 2.6 2.3 1.7 1.3 1.0 0.9 1.0 1.1 0.7 0.5 0.3 0.1 0.2 0.4 0.3 0.2 0.2 0.3 0.4 0.4 0.5 0.4 0.4 0.5 0.7 0.9 1.0 1.5 1.7 1.7 1.8 2.3 2.6 2.5 2.6 3.6 2.7 2.4 4.0 2.8
2.9 2.7 nan 3.4 3.2 3.0 2.8 2.6 2.1 1.5 1.7 1.7 1.4 0.9 nan 0.8 0.6 0.7 0.4 0.4 0.4 0.4 0.4 0.4 0.6 0.6 0.6 0.8 1.1 1.7 2.5 2.4 2.2 3.0 3.0 2.6 2.6 4.9 1.9 2.3 2.7 2.9 4.1
2.9 3.6 2.9 3.0 3.1 4.1 3.7 3.4 3.9 3.5 3.3 2.9 2.4 1.8 nan 1.5 1.8 1.3 1.5 1.5 0.8 0.7 0.5 0.5 0.8 0.7 1.0 1.8 2.4 3.1 3.5 4.1 3.8 4.0 3.7 3.2 3.0 2.7 2.7 3.4 3.5 4.1 5.0
1.9 2.2 2.4 2.7 2.8 nan 3.2 3.3 3.7 4.0 3.5 2.9 2.8 2.9 2.8 2.6 2.5 2.6 2.4 2.3 2.4 2.1 1.5 1.2 1.6 1.5 0.8 1.4 2.0 3.4 6.6 4.8 3.3 3.3 5.2 4.8 4.6 4.6 4.8 6.3 4.9 7.4 6.4
1.2 1.9 1.9 2.0 2.2 1.9 2.3 2.8 2.9 nan 3.0 3.1 2.9 2.8 3.2 3.4 2.8 2.9 3.0 2.9 3.0 3.3 3.1 2.7 2.2 2.1 2.4 2.4 2.2 3.1 4.2 5.1 4.1 5.0 6.0 8.0 7.0 4.2 5.0 6.8 5.7 6.7 7.1
1.1 1.1 1.5 1.9 1.7 2.1 1.9 1.9 2.4 2.8 2.8 2.9 3.0 3.0 2.9 3.1 3.7 4.1 4.0 4.0 4.4 4.5 4.0 4.1 4.2 4.2 4.0 4.9 4.9 4.5 3.8 nan 3.5 2.1 5.4 5.7 7.2 6.4 7.6 8.3 6.5 6.8 8.0
1.3 1.3 1.4 1.4 1.4 1.7 2.0 2.3 2.5 2.8 3.4 3.1 3.7 4.0 3.9 4.3 4.0 4.4 4.8 5.4 5.9 5.1 5.3 5.0 5.5 7.1 7.5 6.5 6.7 3.4 nan nan 1.9 nan 3.3 7.8 8.1 7.2 6.9 8.2 7.7 9.3 8.7
Water_Equivalent
0.00 0.00 0.00 0.00 0.00 0.00 0.00 0.00 0.00 0.00 0.00 0.00 0.00 0.00 0.00 0.00 0.00 0.00 0.00 0.00 0.00 0.00 0.00 0.00 0.00 0.00 0.00 0.00 0.00 0.00 0.00 0.00 0.00 0.00 0.00 0.00 0.00 0.00 0.00 0.00 0.00 0.00 0.00
0.00 0.00 0.00 0.00 0.00 0.00 0.00 0.00 0.00 0.00 0.00 0.00 0.00 0.00 0.00 0.00 0.00 0.00 0.00 0.00 0.00 0.00 0.00 0.00 0.00 0.00 0.00 0.00 0.00 0.00 0.00 0.00 0.00 0.00 0.00 0.00 0.00 0.00 0.00 0.00 0.00 0.00 0.00
0.00 0.00 0.00 0.00 0.00 0.00 0.00 0.00 0.00 0.00 0.00 0.00 0.00 0.00 0.00 0.00 0.00 0.00 0.00 0.00 0.00 0.00 0.00 0.00 0.00 0.00 0.00 0.00 0.00 0.00 0.00 0.00 0.00 0.00 0.00 0.00 0.00 0.00 0.00 0.00 0.00 0.00 0.00
0.00 0.00 0.00 0.00 0.00 0.00 0.00 0.00 0.00 0.00 0.00 0.00 0.00 0.00 0.00 0.00 0.00 0.00 0.00 0.00 0.00 0.00 0.00 0.00 0.00 0.00 0.00 0.00 0.00 0.00 0.00 0.00 0.00 0.00 0.00 0.00 0.00 0.00 0.00 0.00 0.00 0.00 0.00
0.00 0.00 0.00 0.00 0.00 0.00 0.00 0.00 0.00 0.00 0.00 0.00 0.00 0.00 0.00 0.00 0.00 0.00 0.00 0.00 0.00 0.00 0.00 0.00 0.00 nan nan nan 0.00 0.00 0.00 0.00 0.00 0.00 0.00 0.00 0.00 0.00 0.00 0.00 0.00 0.00 0.00
0.00 0.00 0.00 0.00 0.00 0.00 0.00 0.00 0.00 0.00 0.00 0.00 0.00 0.00 0.00 0.00 nan nan 0.00 0.00 0.00 0.00 0.00 0.00 0.00 0.00 0.00 nan nan nan nan 0.00 0.00 0.00 0.00 0.00 0.00 0.00 0.00 0.00 0.00 0.01 0.02
0.00 0.02 0.00 0.00 0.00 0.00 0.00 0.00 0.00 0.00 0.00 0.00 0.00 0.00 0.00 0.00 nan nan nan 0.00 0.00 0.00 0.00 0.00 0.00 0.00 nan 0.00 nan nan nan nan nan 0.00 0.00 0.00 0.00 0.00 0.00 0.00 0.00 0.01 0.00
0.00 0.00 0.01 0.02 0.00 0.00 0.00 0.00 0.00 0.00 0.00 0.00 0.00 0.00 0.00 0.00 nan nan nan 0.00 0.00 0.00 0.00 0.00 0.00 0.00 0.00 0.00 0.00 0.00 0.00 0.00 0.00 0.00 0.00 0.00 0.00 0.00 0.00 0.00 0.00 0.00 0.00
0.00 0.00 0.00 0.00 0.02 0.02 0.00 0.00 0.00 0.00 0.00 0.00 0.00 0.00 0.00 0.00 nan nan 0.00 0.00 0.00 0.00 0.00 0.00 0.00 0.00 nan nan 0.00 0.00 0.00 0.00 nan nan nan nan nan nan nan 0.00 0.06 0.09 0.07
0.00 0.00 0.00 0.00 0.01 0.01 0.01 0.01 0.00 0.00 0.00 0.00 0.00 0.00 nan 0.00 nan nan nan 0.00 0.00 0.00 0.00 0.00 nan 0.00 nan nan 0.00 0.00 0.00 0.00 0.00 0.00 0.00 0.00 nan nan nan 0.00 0.01 0.16 0.20
0.00 0.00 0.00 0.00 0.00 0.00 0.00 0.00 0.00 0.00 0.00 0.00 0.00 0.00 0.00 0.00 0.00 nan nan 0.00 0.00 0.00 0.00 0.00 0.00 nan nan nan nan 0.00 0.00 0.00 0.00 0.00 0.00 0.02 0.01 0.00 0.00 0.01 0.00 0.10 0.31
0.00 0.00 0.00 0.00 0.00 0.00 0.00 0.00 0.00 0.00 0.00 0.00 0.00 0.00 0.00 0.00 nan nan nan nan nan 0.00 0.00 0.00 0.00 nan nan nan nan nan nan nan 0.00 0.00 0.03 0.07 0.10 0.11 0.09 0.06 0.00 0.03 0.05
0.00 0.00 0.00 0.00 0.00 0.00 0.00 0.00 0.00 0.00 0.00 0.00 0.00 0.00 0.00 0.00 0.00 nan nan nan nan 0.00 0.00 0.00 nan nan nan nan nan nan nan 0.00 0.00 0.10 0.10 0.14 0.14 0.12 0.05 0.10 0.02 0.02 0.03
0.00 0.00 0.00 0.00 0.00 0.00 0.00 0.00 0.00 0.00 0.00 0.00 0.00 0.00 0.00 0.00 0.00 0.00 0.00 0.00 nan 0.00 nan 0.00 nan 0.00 nan nan 0.00 0.00 0.00 0.00 0.02 0.08 0.11 0.10 0.13 0.23 0.24 0.22 0.49 0.50 0.80
0.00 0.00 0.00 0.00 0.00 0.00 0.00 0.00 0.00 0.00 0.00 0.00 0.00 0.00 0.00 0.00 0.00 0.00 0.00 0.00 0.00 0.00 nan 0.00 0.00 0.00 0.00 0.00 0.00 0.00 0.00 0.00 0.09 0.09 0.15 0.18 0.20 0.27 0.42 0.38 0.70 0.92 1.32
0.00 0.00 0.00 0.00 0.00 0.00 0.00 0.00 nan nan nan nan nan 0.00 0.00 nan nan nan nan nan nan nan 0.00 0.00 0.02 0.02 0.03 0.00 0.00 0.00 0.01 0.11 0.11 0.16 0.20 0.24 0.40 0.53 0.67 0.95 1.07 1.08 1.25
0.03 0.01 0.00 0.00 0.01 0.00 0.01 0.01 0.00 0.00 nan nan nan nan nan nan nan nan nan nan nan nan 0.00 0.08 0.09 0.10 0.10 0.11 0.12 0.15 0.26 0.16 0.05 0.44 0.42 0.47 0.55 0.68 0.65 0.90 0.89 0.86 0.98
0.19 nan 0.08 0.04 0.02 0.01 0.01 0.00 0.01 0.01 0.00 0.00 nan nan nan nan nan nan nan nan 0.00 nan 0.09 0.12 0.16 0.15 0.17 0.21 0.23 0.31 0.31 0.34 0.44 0.49 0.59 0.74 0.95 1.25 1.42 1.17 0.87 1.16 0.96
0.36 0.34 0.31 0.25 0.12 0.06 0.07 0.05 0.02 0.01 0.00 0.00 0.00 0.00 nan nan nan nan nan 0.00 0.07 0.13 0.12 0.14 0.12 0.15 0.19 0.21 0.22 0.26 0.15 0.50 0.76 1.09 0.85 1.09 1.09 1.39 1.28 0.88 0.74 0.49 nan
0.34 nan 0.37 0.36 0.32 0.25 0.19 0.17 0.16 0.20 0.22 0.14 0.10 0.07 0.03 0.06 0.14 0.09 0.07 0.08 0.12 0.14 0.13 0.18 0.16 0.16 0.21 0.26 0.36 0.39 0.61 0.67 0.69 0.74 0.93 1.03 0.99 1.04 1.31 0.98 0.80 1.27 0.89
0.32 0.31 nan 0.40 0.39 0.37 0.36 0.34 0.28 0.23 0.29 0.30 0.26 0.21 nan 0.26 0.18 0.24 0.13 0.15 0.15 0.15 0.16 0.16 0.21 0.25 0.26 0.30 0.42 0.66 0.99 0.95 0.89 1.19 1.18 1.03 1.03 1.58 0.68 0.79 0.85 0.86 1.15
0.30 0.38 0.33 0.34 0.38 0.51 0.45 0.44 0.51 0.45 0.44 0.42 0.34 0.32 nan 0.23 0.34 0.29 0.35 0.40 0.29 0.25 0.18 0.20 0.30 0.29 0.39 0.73 0.94 1.23 1.28 1.46 1.41 1.56 1.46 1.24 1.13 0.91 0.89 1.01 0.96 1.08 1.25
0.19 0.22 0.25 0.29 0.31 nan 0.39 0.40 0.44 0.46 0.41 0.35 0.35 0.37 0.38 0.35 0.35 0.42 0.42 0.40 0.50 0.53 0.39 0.37 0.47 0.56 0.31 0.56 0.82 1.35 2.42 1.61 1.26 1.30 1.68 1.45 1.36 1.34 1.38 1.54 1.19 1.51 1.26
0.11 0.16 0.17 0.18 0.21 0.18 0.23 0.28 0.30 nan 0.36 0.37 0.33 0.31 0.35 0.37 0.31 0.34 0.40 0.41 0.45 0.48 0.57 0.57 0.55 0.56 0.66 0.85 0.84 1.19 1.55 1.83 1.55 1.77 2.21 2.40 1.74 1.19 1.29 1.42 1.20 1.15 1.25
0.09 0.09 0.12 0.16 0.15 0.18 0.17 0.19 0.25 0.29 0.32 0.33 0.35 0.35 0.33 0.37 0.43 0.52 0.49 0.53 0.63 0.67 0.57 0.63 0.78 0.88 0.97 1.30 1.38 1.37 1.20 nan 1.27 0.71 1.49 1.62 1.72 1.43 1.58 1.61 1.18 1.20 1.24
0.11 0.10 0.11 0.12 0.15 0.17 0.21 0.29 0.36 0.39 0.51 0.42 0.51 0.58 0.53 0.58 0.53 0.65 0.65 0.71 0.84 0.72 0.72 0.74 0.84 1.14 1.34 1.54 1.70 1.03 nan nan 0.49 nan 0.97 1.75 1.48 1.26 1.23 1.39 1.27 1.45 1.31
SL_Ratio
nan nan nan nan nan nan nan nan nan nan nan nan nan nan nan nan nan nan nan nan nan nan nan nan nan nan nan nan nan nan nan nan nan nan nan nan nan nan nan nan nan nan nan
nan nan nan nan nan nan nan nan nan nan nan nan nan nan nan nan nan nan nan nan nan nan nan nan nan nan nan nan nan nan nan nan nan nan nan nan nan nan nan nan nan nan nan
nan nan nan nan nan nan nan nan nan nan nan nan nan nan nan nan nan nan nan nan nan nan nan nan nan nan nan nan nan nan nan nan nan nan nan nan nan nan nan nan nan nan nan
nan nan nan nan nan nan nan nan nan nan nan nan nan nan nan nan nan nan nan nan nan nan nan nan nan nan nan nan nan nan nan nan nan nan nan nan nan nan nan nan nan nan nan
nan nan nan nan nan nan nan nan nan nan nan nan nan nan nan nan nan nan nan nan nan nan nan nan nan nan nan nan nan nan nan nan nan nan nan nan nan nan nan nan nan nan nan
3.3 nan nan nan nan nan nan nan nan nan nan nan nan nan nan nan nan nan nan nan nan nan nan nan nan nan nan nan nan nan nan nan nan nan nan nan nan nan nan nan nan 2.5 2.5
nan 2.5 nan nan nan nan nan nan nan nan nan nan nan nan nan nan nan nan nan nan nan nan nan nan nan nan nan nan nan nan nan nan nan nan nan nan nan nan nan nan nan 2.4 nan
nan nan 4.0 2.9 3.3 nan nan nan nan nan nan nan nan nan nan nan nan nan nan nan nan nan nan nan nan nan nan nan nan nan nan nan nan nan nan nan nan nan nan nan nan nan nan
nan nan nan 3.8 4.0 4.0 nan nan nan nan nan nan nan nan nan nan nan nan nan nan nan nan nan nan nan nan nan nan nan nan nan nan nan nan nan nan nan nan nan nan 2.5 2.5 2.5
nan nan nan 3.3 3.8 5.0 5.0 5.0 nan nan nan nan nan nan nan nan nan nan nan nan nan nan nan nan nan nan nan nan nan nan nan nan nan nan nan nan nan nan nan nan 2.6 2.5 2.5
nan nan nan nan nan nan 5.0 nan nan nan nan nan nan nan nan nan nan nan nan nan nan nan nan nan nan nan nan nan nan nan nan nan nan nan nan 2.6 2.5 5.0 0.0 2.3 nan 2.5 2.5
nan nan nan nan nan nan nan nan nan nan nan nan nan nan nan nan nan nan nan nan nan nan nan nan nan nan nan nan nan nan nan nan nan nan 2.6 2.5 2.5 2.5 2.5 2.5 nan 2.5 2.5
nan nan nan nan nan nan nan nan nan nan nan nan nan nan nan nan nan nan nan nan nan nan nan nan nan nan nan nan nan nan nan nan nan 2.5 2.5 2.5 2.5 2.5 2.5 2.5 2.5 2.5 2.4
15.0 nan nan nan nan nan nan nan nan nan nan nan nan nan nan nan nan nan nan nan nan nan nan nan nan nan nan nan nan nan nan nan 2.4 2.5 2.5 2.5 2.5 2.5 2.5 2.5 2.5 2.5 2.5
15.0 nan 7.5 6.3 nan nan nan nan nan nan nan nan nan nan nan nan nan nan nan nan nan nan nan nan nan nan nan nan nan nan nan nan 2.5 2.5 2.5 2.5 2.5 2.5 2.5 2.5 2.5 2.5 2.7
10.0 10.0 10.0 7.5 8.8 8.3 7.5 nan nan nan nan nan nan nan nan nan nan nan nan nan nan nan nan nan 2.6 2.6 2.5 nan nan nan 2.5 2.5 2.5 2.5 2.5 2.5 2.5 2.5 2.5 2.5 2.5 2.6 2.8
8.6 8.8 9.3 8.3 10.0 8.3 8.8 7.3 9.2 nan nan nan nan nan nan nan nan nan nan nan nan nan nan 2.5 2.5 2.5 2.5 2.5 2.5 2.5 2.5 2.5 2.5 2.5 2.5 2.5 2.5 2.5 2.5 2.6 2.6 2.7 3.0
5.3 nan 4.6 7.2 5.4 7.9 9.0 9.3 8.1 7.7 8.0 nan nan nan nan nan nan nan nan nan nan nan 2.5 2.5 2.5 2.5 2.5 2.5 2.5 2.5 2.5 2.5 2.5 2.5 2.5 2.5 2.5 2.5 2.5 2.7 2.8 3.1 3.1
7.2 6.8 6.4 6.1 5.7 4.9 4.3 3.6 3.5 4.1 8.3 5.0 2.5 nan nan nan nan nan nan nan 2.5 2.6 2.5 2.5 2.5 2.5 2.5 2.5 2.5 2.5 2.5 2.5 2.5 2.5 2.5 2.5 2.5 2.5 2.6 2.6 2.7 2.7 nan
8.2 nan 7.6 7.3 7.3 7.1 6.7 6.2 5.5 5.0 5.0 4.9 5.3 4.7 2.8 2.6 2.8 2.8 2.5 2.5 2.6 3.0 2.9 2.9 2.7 2.5 2.5 2.5 2.5 2.5 2.5 2.5 2.5 2.5 2.5 2.5 2.5 2.5 2.7 2.8 3.0 3.2 3.1
9.2 8.8 nan 8.4 8.2 8.1 7.9 7.6 7.4 6.4 5.7 5.6 5.3 4.0 nan 3.1 3.2 3.1 3.2 3.0 3.0 2.9 2.6 2.7 2.7 2.5 2.5 2.5 2.5 2.5 2.5 2.5 2.5 2.5 2.5 2.5 2.5 3.1 2.8 2.9 3.2 3.4 3.5
9.6 9.3 8.9 8.9 8.3 8.0 8.3 7.8 7.7 7.6 7.5 7.0 7.0 5.7 nan 6.3 5.3 4.4 4.4 3.8 2.9 3.0 3.1 2.5 2.5 2.5 2.5 2.5 2.5 2.5 2.7 2.8 2.7 2.5 2.5 2.6 2.6 3.0 3.0 3.4 3.6 3.8 4.0
10.1 10.1 9.6 9.5 9.2 nan 8.1 8.4 8.4 8.6 8.6 8.3 7.9 7.9 7.3 7.3 7.1 6.2 5.7 5.8 4.7 4.0 3.8 3.3 3.3 2.7 2.5 2.5 2.5 2.5 2.7 3.0 2.7 2.6 3.1 3.3 3.3 3.4 3.4 4.1 4.2 4.9 5.0
11.3 11.4 11.4 11.1 10.4 10.5 10.1 9.9 9.5 nan 8.3 8.4 8.6 9.1 9.2 9.1 9.1 8.5 7.5 7.1 6.8 6.8 5.5 4.8 4.0 3.7 3.7 2.8 2.6 2.6 2.7 2.8 2.6 2.8 2.7 3.3 4.0 3.6 3.8 4.8 4.7 5.8 5.7
12.4 12.3 12.2 12.2 11.7 11.7 11.5 10.0 9.7 9.8 8.9 8.8 8.7 8.6 8.7 8.4 8.6 8.0 8.3 7.5 7.0 6.7 6.9 6.6 5.3 4.7 4.1 3.8 3.5 3.3 3.2 nan 2.8 3.0 3.6 3.5 4.2 4.5 4.8 5.1 5.5 5.7 6.4
12.7 12.8 12.7 11.0 9.4 10.0 9.6 8.1 7.0 7.1 6.7 7.4 7.2 7.0 7.3 7.3 7.7 6.9 7.3 7.6 7.1 7.1 7.3 6.8 6.6 6.2 5.6 4.2 3.9 3.3 nan nan 3.8 nan 3.5 4.5 5.5 5.7 5.6 5.9 6.1 6.4 6.7